| time (UTC) | temp F | wind direction | speed knots | gust knots | rain 1hr in | rain 24hr in | rain mn in | humidity % | barometer mb |
| 20260507031551 | 56 | 0 | 0.9 | 3.5 | 0.00 | 0.00 | 0.00 | 78 | 1019.7 |
| 20260507030054 | 56 | 217 | 0.9 | 4.3 | 0.00 | 0.00 | 0.00 | 77 | 1019.5 |
| 20260507024601 | 56 | 0 | 0.9 | 3.5 | 0.00 | 0.00 | 0.00 | 77 | 1019.5 |
| 20260507023051 | 57 | 209 | 0.9 | 6.1 | 0.00 | 0.00 | 0.00 | 77 | 1019.4 |
| 20260507021554 | 57 | 237 | 1.7 | 7.8 | 0.00 | 0.00 | 0.00 | 76 | 1019.3 |
| 20260507020107 | 57 | 182 | 0.9 | 6.1 | 0.00 | 0.00 | 0.00 | 76 | 1019.4 |
| 20260507014606 | 57 | 184 | 0.9 | 7.0 | 0.00 | 0.00 | 0.00 | 77 | 1019.4 |
| 20260507013051 | 57 | 228 | 0.9 | 3.5 | 0.00 | 0.00 | 0.00 | 77 | 1019.5 |
| 20260507011547 | 57 | 249 | 1.7 | 6.1 | 0.00 | 0.00 | 0.00 | 76 | 1019.5 |
| 20260507010049 | 57 | 252 | 2.6 | 5.2 | 0.00 | 0.00 | 0.00 | 76 | 1019.5 |
| 20260507004551 | 57 | 280 | 1.7 | 5.2 | 0.00 | 0.00 | 0.00 | 76 | 1019.6 |
| 20260507003047 | 57 | 202 | 2.6 | 7.0 | 0.00 | 0.00 | 0.00 | 76 | 1019.7 |
| 20260507001553 | 57 | 210 | 1.7 | 6.1 | 0.00 | 0.00 | 0.00 | 76 | 1019.7 |
| 20260507000046 | 57 | 259 | 3.5 | 7.8 | 0.00 | 0.00 | 0.00 | 75 | 1019.7 |
| 20260506234559 | 57 | 237 | 1.7 | 7.8 | 0.00 | 0.00 | 0.00 | 75 | 1019.7 |
| 20260506233052 | 57 | 225 | 1.7 | 5.2 | 0.00 | 0.00 | 0.00 | 74 | 1019.8 |
| 20260506231556 | 57 | 260 | 0.9 | 6.1 | 0.00 | 0.00 | 0.00 | 75 | 1019.8 |
| 20260506230057 | 57 | 214 | 0.9 | 2.6 | 0.00 | 0.00 | 0.00 | 76 | 1019.8 |
| 20260506224550 | 56 | 286 | 0.9 | 7.0 | 0.00 | 0.00 | 0.00 | 76 | 1019.8 |
| 20260506223056 | 56 | 209 | 3.5 | 7.8 | 0.00 | 0.00 | 0.00 | 76 | 1019.9 |
| 20260506221550 | 56 | 227 | 1.7 | 6.1 | 0.00 | 0.00 | 0.00 | 76 | 1020.0 |
| 20260506220055 | 57 | 178 | 1.7 | 4.3 | 0.00 | 0.00 | 0.00 | 77 | 1020.0 |
| 20260506214548 | 56 | 236 | 1.7 | 6.1 | 0.00 | 0.00 | 0.00 | 78 | 1020.1 |
| 20260506213104 | 56 | 236 | 0.9 | 6.1 | 0.00 | 0.00 | 0.00 | 79 | 1020.1 |
| 20260506211603 | 56 | 252 | 1.7 | 5.2 | 0.00 | 0.00 | 0.00 | 78 | 1020.2 |
| 20260506210051 | 56 | 197 | 0.9 | 6.1 | 0.00 | 0.00 | 0.00 | 79 | 1020.0 |
| 20260506204555 | 56 | 167 | 1.7 | 5.2 | 0.00 | 0.00 | 0.00 | 80 | 1020.0 |
| 20260506203048 | 55 | 240 | 3.5 | 7.8 | 0.00 | 0.00 | 0.00 | 80 | 1019.9 |
| 20260506201600 | 55 | 229 | 1.7 | 6.1 | 0.00 | 0.00 | 0.00 | 82 | 1020.0 |
| 20260506200053 | 55 | 231 | 0.9 | 5.2 | 0.00 | 0.00 | 0.00 | 83 | 1019.9 |
| 20260506194557 | 55 | 197 | 1.7 | 5.2 | 0.00 | 0.00 | 0.00 | 85 | 1019.8 |
| 20260506193048 | 55 | 273 | 0.0 | 3.5 | 0.00 | 0.00 | 0.00 | 86 | 1019.7 |
| 20260506191547 | 55 | 188 | 1.7 | 4.3 | 0.00 | 0.00 | 0.00 | 85 | 1019.5 |
| 20260506190050 | 55 | 259 | 0.9 | 5.2 | 0.00 | 0.00 | 0.00 | 86 | 1019.5 |
| 20260506184603 | 55 | 223 | 0.9 | 4.3 | 0.00 | 0.00 | 0.00 | 87 | 1019.7 |
| 20260506183059 | 54 | 0 | 0.9 | 3.5 | 0.00 | 0.00 | 0.00 | 87 | 1019.6 |
| 20260506181550 | 54 | 182 | 1.7 | 5.2 | 0.00 | 0.00 | 0.00 | 88 | 1019.6 |
| 20260506180056 | 54 | 169 | 3.5 | 7.8 | 0.00 | 0.00 | 0.00 | 88 | 1019.2 |
| 20260506174549 | 54 | 170 | 0.9 | 5.2 | 0.00 | 0.00 | 0.00 | 90 | 1019.3 |
| 20260506173052 | 53 | 171 | 1.7 | 6.1 | 0.00 | 0.00 | 0.00 | 91 | 1019.5 |
| 20260506171552 | 53 | 262 | 1.7 | 6.1 | 0.00 | 0.00 | 0.00 | 92 | 1019.6 |
| 20260506170108 | 53 | 192 | 1.7 | 6.1 | 0.00 | 0.00 | 0.00 | 92 | 1019.3 |
| 20260506164547 | 53 | 202 | 0.9 | 3.5 | 0.00 | 0.00 | 0.00 | 92 | 1019.3 |
| 20260506163102 | 53 | 217 | 0.9 | 2.6 | 0.00 | 0.00 | 0.00 | 92 | 1019.1 |
| 20260506161550 | 53 | 215 | 1.7 | 5.2 | 0.00 | 0.00 | 0.00 | 92 | 1018.7 |
| 20260506160050 | 53 | 199 | 0.9 | 4.3 | 0.00 | 0.00 | 0.00 | 92 | 1018.8 |
| 20260506154551 | 53 | 202 | 1.7 | 5.2 | 0.00 | 0.00 | 0.00 | 92 | 1018.9 |
| 20260506153053 | 53 | 273 | 0.9 | 5.2 | 0.00 | 0.00 | 0.00 | 91 | 1018.9 |
| 20260506151555 | 54 | 262 | 0.9 | 3.5 | 0.00 | 0.00 | 0.00 | 91 | 1018.8 |
| 20260506150049 | 54 | 182 | 0.9 | 3.5 | 0.00 | 0.00 | 0.00 | 91 | 1018.7 |
| 20260506144603 | 54 | 226 | 0.0 | 2.6 | 0.00 | 0.00 | 0.00 | 91 | 1018.8 |
| 20260506143055 | 54 | 261 | 1.7 | 4.3 | 0.00 | 0.00 | 0.00 | 90 | 1018.8 |
| 20260506141549 | 54 | 190 | 0.9 | 4.3 | 0.00 | 0.00 | 0.00 | 90 | 1018.5 |
| 20260506140053 | 54 | 209 | 1.7 | 3.5 | 0.00 | 0.00 | 0.00 | 89 | 1018.6 |
| 20260506134543 | 53 | 224 | 1.7 | 5.2 | 0.00 | 0.00 | 0.00 | 89 | 1018.4 |
| 20260506133051 | 53 | 223 | 1.7 | 5.2 | 0.00 | 0.00 | 0.00 | 88 | 1018.4 |
| 20260506131552 | 53 | 255 | 1.7 | 5.2 | 0.00 | 0.00 | 0.00 | 88 | 1018.2 |
| 20260506130058 | 53 | 233 | 0.9 | 2.6 | 0.00 | 0.00 | 0.00 | 88 | 1018.1 |
| 20260506124548 | 53 | 260 | 0.9 | 2.6 | 0.00 | 0.00 | 0.00 | 87 | 1017.9 |
| 20260506123052 | 53 | 0 | 0.0 | 3.5 | 0.00 | 0.00 | 0.00 | 87 | 1017.8 |
| 20260506121553 | 54 | 0 | 0.9 | 3.5 | 0.00 | 0.00 | 0.00 | 86 | 1017.8 |
| 20260506120048 | 53 | 264 | 0.0 | 4.3 | 0.00 | 0.00 | 0.00 | 86 | 1017.8 |
| 20260506114551 | 54 | 206 | 0.0 | 4.3 | 0.00 | 0.00 | 0.00 | 86 | 1017.5 |
| 20260506113046 | 54 | 234 | 2.6 | 7.8 | 0.00 | 0.00 | 0.00 | 85 | 1017.5 |
| 20260506111546 | 54 | 0 | 1.7 | 6.1 | 0.00 | 0.00 | 0.00 | 85 | 1017.3 |
| 20260506110049 | 54 | 271 | 0.9 | 3.5 | 0.00 | 0.00 | 0.00 | 85 | 1017.4 |
| 20260506104549 | 54 | 257 | 0.0 | 2.6 | 0.00 | 0.00 | 0.00 | 85 | 1017.3 |
| 20260506103055 | 54 | 228 | 0.9 | 5.2 | 0.00 | 0.00 | 0.00 | 85 | 1017.1 |
| 20260506101554 | 54 | 0 | 0.9 | 3.5 | 0.00 | 0.00 | 0.00 | 85 | 1017.1 |
| 20260506100050 | 54 | 276 | 0.9 | 4.3 | 0.00 | 0.00 | 0.00 | 85 | 1016.8 |
| 20260506094550 | 54 | 271 | 0.9 | 2.6 | 0.00 | 0.00 | 0.00 | 85 | 1016.7 |
| 20260506093049 | 54 | 275 | 0.9 | 7.0 | 0.00 | 0.00 | 0.00 | 85 | 1016.6 |
| 20260506091544 | 54 | 267 | 0.9 | 5.2 | 0.00 | 0.00 | 0.00 | 84 | 1016.5 |
| 20260506090049 | 55 | 225 | 0.9 | 6.1 | 0.00 | 0.00 | 0.00 | 84 | 1016.5 |
| 20260506084602 | 55 | 236 | 0.9 | 5.2 | 0.00 | 0.00 | 0.00 | 83 | 1016.3 |
| 20260506083046 | 55 | 214 | 0.9 | 4.3 | 0.00 | 0.00 | 0.00 | 83 | 1016.1 |
| 20260506081545 | 55 | 0 | 0.0 | 1.7 | 0.00 | 0.00 | 0.00 | 83 | 1016.2 |
| 20260506073052 | 56 | 180 | 0.0 | 2.6 | 0.00 | 0.00 | 0.00 | 81 | 1016.1 |
| 20260506071553 | 57 | 0 | 0.0 | 3.5 | 0.00 | 0.00 | 0.00 | 81 | 1016.1 |
| 20260506061555 | 58 | 215 | 1.7 | 4.3 | 0.00 | 0.00 | 0.00 | 80 | 1015.4 |
| 20260506050108 | 60 | 0 | 0.0 | 2.6 | 0.00 | 0.00 | 0.00 | 77 | 1014.8 |
| 20260506044552 | 60 | 0 | 0.0 | 1.7 | 0.00 | 0.00 | 0.00 | 76 | 1014.8 |
| 20260506043044 | 60 | 148 | 0.9 | 5.2 | 0.00 | 0.00 | 0.00 | 76 | 1014.7 |
| 20260506041545 | 61 | 195 | 0.0 | 2.6 | 0.00 | 0.00 | 0.00 | 75 | 1014.6 |
| 20260506040047 | 61 | 0 | 0.0 | 1.7 | 0.00 | 0.00 | 0.00 | 74 | 1014.4 |
| 20260506034549 | 62 | 0 | 0.0 | 1.7 | 0.00 | 0.00 | 0.00 | 73 | 1014.3 |
| 20260506033050 | 62 | 0 | 0.0 | 2.6 | 0.00 | 0.00 | 0.00 | 72 | 1014.2 |